Tracking 18852 objects as of 23-Nov-2017
HD Live streaming from Space Station
objects crossing your sky now

FENGYUN 1C DEB

Track FENGYUN 1C DEB now!
10-day predictions


NORAD ID: 30846
Int'l Code: 1999-025AWG
Perigee: 755.9 km
Apogee: 846.5 km
Inclination: 99.3 °
Period: 100.7 minutes
Semi major axis: 7172 km
RCS: 0.0062 m2 (small)
Launch date: May 10, 1999
Source: People's Republic of China (PRC)
Launch site: Taiyaun Space Center, China (TSC)

Note: This is SATELLITE DEBRIS
aabbcc
Your satellite tracking list
Your tracking list is empty




NASA's NSSDC Master Catalog

Two Line Element Set (TLE):
1 30846U 99025AWG 17326.28106193 +.00000496 +00000-0 +20985-3 0  9991
2 30846 099.2582 246.7574 0063193 192.3928 320.9211 14.29306586558087
Source of the keplerian elements: AFSPC